Location: Dumpton Point
(51.3500°N, 1.4433°E)
Time: 07:18:27
(UTC+00:00)

Meteor 2-3 Rocket - Pass Details

Date: 09 April 2020
Orbit: 842 x 885 km, 81.2° (Epoch: 02 June)

Event Time Altitude Azimuth Distance (km) Brightness Sun altitude
Rises 21:46:17 0° 347° (NNW) 3,484 8.0 -24.4°
Reaches altitude 10° 21:48:45 10° 347° (NNW) 2,536 7.1 -24.7°
Maximum altitude 21:54:32 89° 75° (ENE) 874 3.6 -25.2°
Enters shadow 21:55:24 66° 166° (SSE) 943 3.6 -25.2°
